FW8724 Weather Reports


time (UTC)temp
F
wind
direction
speed
knots
gust
knots
rain 1hr
in
rain 24hr
in
rain mn
in
humidity
%
barometer
mb
20260504081541 37 284 11.3 14.8 0.04 0.41 0.12 93 977.4
20260504044551 41 88 0.0 7.0 0.00 0.29 0.00 85 975.5
20260504043042 41 71 2.6 7.0 0.00 0.29 0.00 84 975.8
20260504041538 41 121 1.7 10.4 0.00 0.29 0.00 84 976.2
20260504040053 42 122 8.7 15.6 0.00 0.29 0.00 82 976.4
20260504034554 42 197 0.9 12.2 0.00 0.29 0.00 82 977.2
20260504033114 43 137 6.1 11.3 0.00 0.29 0.00 82 977.4
20260504031538 43 211 4.3 11.3 0.00 0.29 0.00 82 977.6
20260504030047 43 193 7.8 15.6 0.00 0.29 0.00 82 977.5
20260504024543 43 327 6.1 13.0 0.00 0.29 0.29 81 977.8
20260504023057 43 311 4.3 20.0 0.00 0.29 0.29 81 977.9
20260504021538 43 90 3.5 22.6 0.00 0.29 0.29 80 979.3
20260504020051 43 153 14.8 37.4 0.00 0.29 0.29 80 979.2
20260504014548 43 62 23.5 43.4 0.00 0.29 0.29 80 978.6
20260504000041 42 111 31.3 50.4 0.04 0.29 0.29 84 982.6
20260503234543 42 85 25.2 51.3 0.03 0.28 0.28 84 983.6
20260503233038 43 77 17.4 33.9 0.02 0.26 0.26 83 986.2
20260503231538 42 276 7.0 21.7 0.04 0.25 0.25 84 988.2
20260503230048 41 306 5.2 13.0 0.09 0.25 0.25 86 989.7
20260503224541 40 115 4.3 13.0 0.10 0.25 0.25 89 991.5
20260503223046 39 10 3.5 8.7 0.09 0.24 0.24 88 992.4
20260503221543 40 27 2.6 8.7 0.07 0.20 0.20 87 993.4
20260503220039 40 16 4.3 10.4 0.05 0.16 0.16 86 994.3
20260503214538 41 321 1.7 7.0 0.04 0.15 0.15 86 994.5
20260503213056 42 262 2.6 5.2 0.05 0.15 0.15 86 994.9
20260503211544 42 80 8.7 17.4 0.05 0.13 0.13 86 994.8
20260503210054 42 54 1.7 7.8 0.05 0.11 0.11 87 995.6
20260503204549 42 25 3.5 12.2 0.08 0.11 0.11 87 995.8
20260503203038 42 30 3.5 7.8 0.07 0.10 0.10 86 997.1
20260503201539 42 54 3.5 7.0 0.07 0.08 0.08 84 998.0
20260503200039 42 360 2.6 7.8 0.06 0.06 0.06 82 998.8
20260503194543 43 68 4.3 13.0 0.03 0.03 0.03 79 999.0
20260503193052 43 95 5.2 13.0 0.03 0.03 0.03 76 1000.4
20260503191547 45 71 6.1 16.5 0.01 0.01 0.01 70 1001.4
20260503190039 47 103 3.5 12.2 0.00 0.00 0.00 57 1002.5
20260503184550 48 115 13.0 19.1 0.00 0.00 0.00 53 1002.8
20260503183100 49 86 10.4 16.5 0.00 0.00 0.00 47 1003.2
20260503181543 51 140 8.7 17.4 0.00 0.00 0.00 40 1004.3
20260503180047 52 143 5.2 11.3 0.00 0.00 0.00 35 1004.8
20260503174539 52 110 9.6 17.4 0.00 0.00 0.00 33 1004.4
20260503173105 52 137 7.0 13.0 0.00 0.00 0.00 34 1005.2
20260503171541 52 128 8.7 16.5 0.00 0.00 0.00 33 1005.7